UMZ951 DNYO-DBBB

Flight info

Callsign UMZ951
Flight time 3h 16m
Altitude 20000
Route APIRO UT457 LAG UL433 POLTO POLTO1M
Aircraft AT46/M-SDFGIRY/S

Departure

Time 2026-04-24 15:38
Airport Yola Airport (DNYO)

Arrival

Time 2026-04-24 18:54
Airport Cotonou Cadjehoun International Airport (DBBB)
Time Latitude Longitude Altitude Speed Heading
2026-04-24 15:33 9.26669 12.42660 582 ft 0 kts 12°
2026-04-24 15:35 9.26676 12.42662 581 ft 9 kts 13°
2026-04-24 15:35 9.26819 12.42809 589 ft 16 kts 75°
2026-04-24 15:35 9.26907 12.42847 589 ft 14 kts 351°
2026-04-24 15:36 9.26997 12.42832 590 ft 12 kts 350°
2026-04-24 15:36 9.27078 12.42803 591 ft 1 kts 86°
2026-04-24 15:36 9.27032 12.42827 591 ft 0 kts 169°
2026-04-24 15:37 9.27029 12.42828 591 ft 7 kts 169°
2026-04-24 15:37 9.26970 12.42837 590 ft 29 kts 172°
2026-04-24 15:37 9.26552 12.42907 589 ft 93 kts 170°
2026-04-24 15:37 9.25747 12.43073 677 ft 132 kts 167°
2026-04-24 15:38 9.24868 12.43285 1216 ft 138 kts 171°
2026-04-24 15:38 9.23889 12.43171 1607 ft 147 kts 204°
2026-04-24 15:38 9.23216 12.42453 2107 ft 148 kts 253°
2026-04-24 15:38 9.23043 12.41424 2639 ft 152 kts 259°
2026-04-24 15:39 9.22852 12.40282 2927 ft 175 kts 259°
2026-04-24 15:39 9.22642 12.39048 3405 ft 179 kts 259°
2026-04-24 15:39 9.22413 12.37806 3975 ft 181 kts 257°
2026-04-24 15:39 9.22137 12.36564 4541 ft 181 kts 256°
2026-04-24 15:40 9.21833 12.35311 5052 ft 185 kts 255°
2026-04-24 15:40 9.21510 12.34034 5568 ft 189 kts 255°
2026-04-24 15:40 9.21172 12.32737 6053 ft 193 kts 256°
2026-04-24 15:40 9.20839 12.31413 6545 ft 196 kts 256°
2026-04-24 15:41 9.20509 12.30068 7023 ft 198 kts 256°
2026-04-24 15:41 9.20177 12.28708 7495 ft 201 kts 257°
2026-04-24 15:41 9.19840 12.27325 7976 ft 203 kts 257°
2026-04-24 15:41 9.19499 12.25931 8433 ft 206 kts 257°
2026-04-24 15:42 9.19156 12.24519 8920 ft 209 kts 257°
2026-04-24 15:42 9.18811 12.23103 9357 ft 211 kts 257°
2026-04-24 15:42 9.18457 12.21651 9811 ft 213 kts 257°
2026-04-24 15:42 9.18100 12.20190 10290 ft 214 kts 257°
2026-04-24 15:43 9.17744 12.18723 10749 ft 215 kts 258°
2026-04-24 15:43 9.17382 12.17247 11222 ft 216 kts 257°
2026-04-24 15:43 9.17018 12.15764 11701 ft 218 kts 257°
2026-04-24 15:43 9.16653 12.14270 12195 ft 219 kts 257°
2026-04-24 15:44 9.16285 12.12764 12688 ft 221 kts 258°
2026-04-24 15:44 9.15916 12.11249 13170 ft 223 kts 258°
2026-04-24 15:44 9.15543 12.09724 13638 ft 224 kts 258°
2026-04-24 15:44 9.15169 12.08192 14073 ft 224 kts 258°
2026-04-24 15:45 9.14793 12.06659 14557 ft 225 kts 258°
2026-04-24 15:45 9.14420 12.05128 15040 ft 224 kts 258°
2026-04-24 15:45 9.14046 12.03593 15515 ft 224 kts 258°
2026-04-24 15:45 9.13667 12.02062 15979 ft 225 kts 258°
2026-04-24 15:46 9.13298 12.00545 16454 ft 225 kts 258°
2026-04-24 15:46 9.12924 11.99009 16968 ft 225 kts 258°
2026-04-24 15:46 9.12546 11.97474 17465 ft 225 kts 257°
2026-04-24 15:46 9.12172 11.95936 17936 ft 226 kts 258°
2026-04-24 15:47 9.11796 11.94389 18332 ft 227 kts 257°
2026-04-24 15:47 9.11413 11.92837 18747 ft 228 kts 257°
2026-04-24 15:47 9.11028 11.91279 19184 ft 228 kts 256°
2026-04-24 15:47 9.10650 11.89733 19599 ft 230 kts 256°
2026-04-24 15:48 9.10250 11.88085 19667 ft 248 kts 256°
2026-04-24 15:48 9.09822 11.86339 19704 ft 263 kts 256°
2026-04-24 15:48 9.09371 11.84496 19714 ft 277 kts 256°
2026-04-24 15:48 9.08896 11.82572 19724 ft 287 kts 256°
2026-04-24 15:49 9.08413 11.80588 19732 ft 296 kts 256°
2026-04-24 15:49 9.07910 11.78555 19743 ft 303 kts 256°
2026-04-24 15:49 9.07398 11.76460 19716 ft 309 kts 256°
2026-04-24 15:49 9.06876 11.74335 19720 ft 313 kts 256°
2026-04-24 15:50 9.06348 11.72193 19719 ft 315 kts 256°
2026-04-24 15:50 9.05821 11.70039 19728 ft 316 kts 256°
2026-04-24 15:50 9.05294 11.67900 19729 ft 318 kts 256°
2026-04-24 15:50 9.04752 11.65699 19726 ft 319 kts 256°
2026-04-24 15:51 9.04226 11.63547 19734 ft 320 kts 256°
2026-04-24 15:51 9.03687 11.61362 19734 ft 321 kts 256°
2026-04-24 15:51 9.03148 11.59166 19739 ft 322 kts 256°
2026-04-24 15:51 9.02605 11.56965 19725 ft 323 kts 256°
2026-04-24 15:52 9.02062 11.54761 19725 ft 322 kts 256°
2026-04-24 15:52 9.01521 11.52560 19728 ft 323 kts 256°
2026-04-24 15:52 9.00978 11.50356 19721 ft 322 kts 256°
2026-04-24 15:52 9.00437 11.48157 19722 ft 322 kts 256°
2026-04-24 15:53 8.99894 11.45954 19727 ft 322 kts 256°
2026-04-24 15:53 8.99353 11.43760 19726 ft 322 kts 256°
2026-04-24 15:53 8.98811 11.41561 19724 ft 322 kts 256°
2026-04-24 15:53 8.98269 11.39360 19724 ft 322 kts 256°
2026-04-24 15:54 8.97734 11.37190 19725 ft 322 kts 256°
2026-04-24 15:54 8.97191 11.34991 19716 ft 322 kts 256°
2026-04-24 15:54 8.96647 11.32786 19717 ft 322 kts 256°
2026-04-24 15:54 8.96105 11.30587 19719 ft 322 kts 256°
2026-04-24 15:55 8.95563 11.28392 19716 ft 322 kts 256°
2026-04-24 15:55 8.95020 11.26192 19716 ft 322 kts 256°
2026-04-24 15:55 8.94478 11.23998 19713 ft 322 kts 256°
2026-04-24 15:55 8.93935 11.21798 19712 ft 322 kts 256°
2026-04-24 15:56 8.93392 11.19603 19711 ft 322 kts 256°
2026-04-24 15:56 8.92848 11.17403 19708 ft 322 kts 256°
2026-04-24 15:56 8.92305 11.15209 19708 ft 322 kts 256°
2026-04-24 15:56 8.91762 11.13015 19707 ft 322 kts 256°
2026-04-24 15:57 8.91217 11.10812 19708 ft 322 kts 256°
2026-04-24 15:57 8.90681 11.08644 19709 ft 322 kts 256°
2026-04-24 15:57 8.90136 11.06445 19705 ft 322 kts 256°
2026-04-24 15:57 8.89593 11.04246 19707 ft 322 kts 256°
2026-04-24 15:58 8.89047 11.02046 19706 ft 322 kts 256°
2026-04-24 15:58 8.88503 10.99849 19703 ft 322 kts 256°
2026-04-24 15:58 8.87958 10.97651 19705 ft 322 kts 256°
2026-04-24 15:58 8.87413 10.95451 19705 ft 322 kts 256°
2026-04-24 15:59 8.86866 10.93246 19706 ft 323 kts 256°
2026-04-24 15:59 8.86322 10.91048 19705 ft 323 kts 256°
2026-04-24 15:59 8.85774 10.88842 19705 ft 323 kts 256°
2026-04-24 15:59 8.85228 10.86643 19703 ft 323 kts 256°
2026-04-24 16:00 8.84682 10.84440 19703 ft 323 kts 256°
2026-04-24 16:00 8.84136 10.82239 19701 ft 323 kts 256°
2026-04-24 16:00 8.83590 10.80040 19703 ft 323 kts 256°
2026-04-24 16:00 8.83049 10.77865 19701 ft 322 kts 256°
2026-04-24 16:01 8.82502 10.75664 19704 ft 323 kts 256°
2026-04-24 16:01 8.81955 10.73464 19704 ft 323 kts 256°
2026-04-24 16:01 8.81409 10.71264 19704 ft 323 kts 256°
2026-04-24 16:01 8.80863 10.69064 19708 ft 323 kts 256°
2026-04-24 16:02 8.80315 10.66860 19708 ft 323 kts 256°
2026-04-24 16:02 8.79766 10.64651 19703 ft 323 kts 256°
2026-04-24 16:02 8.79216 10.62450 19706 ft 323 kts 256°
2026-04-24 16:02 8.78668 10.60249 19708 ft 323 kts 256°
2026-04-24 16:03 8.78120 10.58042 19706 ft 323 kts 256°
2026-04-24 16:03 8.77570 10.55839 19703 ft 323 kts 256°
2026-04-24 16:03 8.77021 10.53629 19705 ft 323 kts 256°
2026-04-24 16:03 8.76471 10.51426 19706 ft 323 kts 256°
2026-04-24 16:04 8.75929 10.49246 19704 ft 323 kts 256°
2026-04-24 16:04 8.75379 10.47041 19704 ft 323 kts 256°
2026-04-24 16:04 8.74830 10.44839 19704 ft 323 kts 256°
2026-04-24 16:04 8.74271 10.42604 19705 ft 323 kts 256°
2026-04-24 16:05 8.73179 10.38229 19704 ft 323 kts 256°
2026-04-24 16:05 8.72630 10.36020 19708 ft 323 kts 256°
2026-04-24 16:06 8.71529 10.31613 19705 ft 323 kts 256°
2026-04-24 16:06 8.70979 10.29414 19707 ft 323 kts 256°
2026-04-24 16:06 8.70062 10.25742 19707 ft 323 kts 256°
2026-04-24 16:07 8.69326 10.22798 19706 ft 323 kts 256°
2026-04-24 16:07 8.68776 10.20592 19707 ft 323 kts 256°
2026-04-24 16:07 8.67674 10.16186 19710 ft 323 kts 256°
2026-04-24 16:08 8.67122 10.13987 19709 ft 323 kts 256°
2026-04-24 16:08 8.66022 10.09582 19713 ft 323 kts 256°
2026-04-24 16:09 8.64921 10.05198 19714 ft 323 kts 256°
2026-04-24 16:09 8.64371 10.02997 19715 ft 324 kts 256°
2026-04-24 16:09 8.64003 10.01535 19713 ft 324 kts 256°
2026-04-24 16:09 8.63263 9.98581 19715 ft 324 kts 256°
2026-04-24 16:10 8.61604 9.91968 19720 ft 324 kts 256°
2026-04-24 16:11 8.60495 9.87552 19718 ft 324 kts 256°
2026-04-24 16:11 8.59943 9.85348 19719 ft 324 kts 256°
2026-04-24 16:11 8.59387 9.83143 19719 ft 324 kts 256°
2026-04-24 16:12 8.58279 9.78729 19719 ft 324 kts 256°
2026-04-24 16:12 8.57724 9.76522 19720 ft 324 kts 256°
2026-04-24 16:12 8.56638 9.72100 19722 ft 324 kts 257°
2026-04-24 16:13 8.56168 9.69873 19724 ft 324 kts 259°
2026-04-24 16:13 8.55269 9.65430 19722 ft 324 kts 259°
2026-04-24 16:14 8.54349 9.60970 19722 ft 324 kts 258°
2026-04-24 16:14 8.53884 9.58728 19724 ft 324 kts 258°
2026-04-24 16:14 8.52962 9.54269 19723 ft 324 kts 259°
2026-04-24 16:15 8.52806 9.53513 19724 ft 324 kts 259°
2026-04-24 16:15 8.51575 9.47578 19724 ft 324 kts 259°
2026-04-24 16:16 8.50656 9.43141 19727 ft 324 kts 259°
2026-04-24 16:16 8.50194 9.40910 19730 ft 324 kts 259°
2026-04-24 16:17 8.48955 9.34941 19729 ft 324 kts 259°
2026-04-24 16:17 8.48036 9.30512 19728 ft 324 kts 258°
2026-04-24 16:18 8.47107 9.26050 19732 ft 324 kts 259°
2026-04-24 16:18 8.46182 9.21589 19729 ft 324 kts 259°
2026-04-24 16:18 8.45719 9.19364 19727 ft 324 kts 259°
2026-04-24 16:19 8.44790 9.14902 19732 ft 324 kts 259°
2026-04-24 16:19 8.44327 9.12672 19732 ft 324 kts 259°
2026-04-24 16:20 8.43398 9.08213 19734 ft 324 kts 259°
2026-04-24 16:20 8.42468 9.03759 19734 ft 324 kts 259°
2026-04-24 16:20 8.42000 9.01529 19738 ft 324 kts 259°
2026-04-24 16:21 8.41072 8.97102 19733 ft 324 kts 259°
2026-04-24 16:21 8.40606 8.94877 19736 ft 324 kts 258°
2026-04-24 16:21 8.40138 8.92650 19737 ft 324 kts 259°
2026-04-24 16:22 8.39671 8.90424 19739 ft 323 kts 259°
2026-04-24 16:22 8.38735 8.85982 19737 ft 323 kts 258°
2026-04-24 16:22 8.38265 8.83756 19738 ft 324 kts 259°
2026-04-24 16:23 8.37789 8.81530 19736 ft 324 kts 259°
2026-04-24 16:23 8.37315 8.79331 19736 ft 324 kts 259°
2026-04-24 16:23 8.36856 8.77102 19738 ft 324 kts 259°
2026-04-24 16:24 8.35935 8.72634 19741 ft 325 kts 259°
2026-04-24 16:24 8.35467 8.70403 19740 ft 325 kts 259°
2026-04-24 16:24 8.34990 8.68175 19743 ft 325 kts 259°
2026-04-24 16:24 8.34518 8.65943 19740 ft 325 kts 259°
2026-04-24 16:25 8.34045 8.63711 19740 ft 325 kts 259°
2026-04-24 16:25 8.33572 8.61481 19743 ft 325 kts 259°
2026-04-24 16:25 8.33094 8.59245 19747 ft 325 kts 258°
2026-04-24 16:26 8.32136 8.54814 19744 ft 325 kts 259°
2026-04-24 16:26 8.31661 8.52578 19745 ft 326 kts 259°
2026-04-24 16:26 8.30713 8.48105 19744 ft 326 kts 259°
2026-04-24 16:27 8.30237 8.45863 19746 ft 326 kts 259°
2026-04-24 16:27 8.29763 8.43625 19742 ft 326 kts 259°
2026-04-24 16:27 8.29288 8.41380 19745 ft 326 kts 259°
2026-04-24 16:27 8.28813 8.39142 19748 ft 326 kts 259°
2026-04-24 16:28 8.28335 8.36898 19746 ft 326 kts 259°
2026-04-24 16:28 8.27859 8.34655 19747 ft 326 kts 259°
2026-04-24 16:28 8.26903 8.30171 19742 ft 326 kts 259°
2026-04-24 16:29 8.26430 8.27929 19744 ft 326 kts 259°
2026-04-24 16:29 8.25952 8.25687 19744 ft 327 kts 259°
2026-04-24 16:29 8.25006 8.21229 19746 ft 327 kts 258°
2026-04-24 16:30 8.24049 8.16740 19747 ft 327 kts 259°
2026-04-24 16:30 8.23578 8.14497 19747 ft 327 kts 259°
2026-04-24 16:30 8.23092 8.12252 19745 ft 327 kts 259°
2026-04-24 16:31 8.22615 8.10003 19743 ft 327 kts 259°
2026-04-24 16:31 8.22138 8.07761 19743 ft 327 kts 259°
2026-04-24 16:31 8.21660 8.05511 19745 ft 327 kts 259°
2026-04-24 16:31 8.21177 8.03267 19742 ft 327 kts 258°
2026-04-24 16:32 8.20701 8.01024 19742 ft 327 kts 259°
2026-04-24 16:32 8.20230 7.98807 19744 ft 327 kts 259°
2026-04-24 16:32 8.19748 7.96562 19745 ft 327 kts 259°
2026-04-24 16:32 8.19264 7.94316 19746 ft 327 kts 259°
2026-04-24 16:33 8.18793 7.92073 19747 ft 327 kts 259°
2026-04-24 16:33 8.18310 7.89827 19745 ft 327 kts 259°
2026-04-24 16:33 8.17828 7.87581 19746 ft 327 kts 259°
2026-04-24 16:33 8.17351 7.85338 19748 ft 327 kts 259°
2026-04-24 16:34 8.16872 7.83089 19749 ft 327 kts 259°
2026-04-24 16:34 8.16391 7.80842 19747 ft 327 kts 259°
2026-04-24 16:34 8.15908 7.78592 19745 ft 328 kts 259°
2026-04-24 16:34 8.15426 7.76348 19745 ft 328 kts 259°
2026-04-24 16:35 8.14947 7.74101 19748 ft 328 kts 259°
2026-04-24 16:35 8.14465 7.71849 19748 ft 328 kts 259°
2026-04-24 16:35 8.13983 7.69603 19747 ft 328 kts 259°
2026-04-24 16:35 8.13506 7.67378 19745 ft 328 kts 259°
2026-04-24 16:36 8.13024 7.65131 19745 ft 328 kts 259°
2026-04-24 16:36 8.12494 7.62894 19745 ft 328 kts 254°
2026-04-24 16:36 8.11718 7.60727 19746 ft 328 kts 250°
2026-04-24 16:36 8.10902 7.58574 19755 ft 328 kts 250°
2026-04-24 16:37 8.10148 7.56406 19753 ft 328 kts 252°
2026-04-24 16:37 8.09447 7.54216 19751 ft 328 kts 253°
2026-04-24 16:37 8.08744 7.52020 19751 ft 328 kts 252°
2026-04-24 16:37 8.08026 7.49842 19748 ft 327 kts 252°
2026-04-24 16:38 8.07309 7.47668 19750 ft 327 kts 252°
2026-04-24 16:38 8.06601 7.45510 19750 ft 327 kts 252°
2026-04-24 16:38 8.05878 7.43309 19749 ft 327 kts 252°
2026-04-24 16:38 8.05165 7.41132 19752 ft 327 kts 252°
2026-04-24 16:39 8.04458 7.38985 19751 ft 327 kts 252°
2026-04-24 16:39 8.03745 7.36806 19752 ft 327 kts 252°
2026-04-24 16:39 8.03030 7.34629 19751 ft 327 kts 252°
2026-04-24 16:39 8.02316 7.32456 19754 ft 327 kts 252°
2026-04-24 16:40 8.01603 7.30280 19752 ft 327 kts 252°
2026-04-24 16:40 8.00886 7.28107 19753 ft 326 kts 252°
2026-04-24 16:40 8.00172 7.25932 19755 ft 326 kts 252°
2026-04-24 16:40 7.99460 7.23762 19755 ft 326 kts 252°
2026-04-24 16:41 7.98742 7.21589 19756 ft 326 kts 253°
2026-04-24 16:41 7.98030 7.19413 19757 ft 326 kts 252°
2026-04-24 16:41 7.97313 7.17241 19754 ft 326 kts 253°
2026-04-24 16:41 7.96601 7.15067 19754 ft 326 kts 253°
2026-04-24 16:42 7.95890 7.12899 19755 ft 326 kts 252°
2026-04-24 16:42 7.95170 7.10728 19754 ft 326 kts 253°
2026-04-24 16:42 7.94459 7.08556 19756 ft 326 kts 253°
2026-04-24 16:42 7.93748 7.06392 19756 ft 325 kts 252°
2026-04-24 16:43 7.93030 7.04222 19761 ft 325 kts 253°
2026-04-24 16:43 7.92320 7.02054 19756 ft 326 kts 253°
2026-04-24 16:43 7.91601 6.99890 19758 ft 325 kts 252°
2026-04-24 16:43 7.90894 6.97723 19759 ft 325 kts 253°
2026-04-24 16:44 7.90184 6.95586 19761 ft 325 kts 253°
2026-04-24 16:44 7.89472 6.93417 19762 ft 325 kts 252°
2026-04-24 16:44 7.88756 6.91250 19761 ft 325 kts 253°
2026-04-24 16:44 7.88044 6.89084 19763 ft 325 kts 253°
2026-04-24 16:45 7.87330 6.86918 19760 ft 325 kts 253°
2026-04-24 16:45 7.86615 6.84753 19761 ft 325 kts 252°
2026-04-24 16:45 7.85903 6.82590 19762 ft 325 kts 253°
2026-04-24 16:45 7.85190 6.80428 19767 ft 325 kts 253°
2026-04-24 16:46 7.84473 6.78266 19765 ft 325 kts 253°
2026-04-24 16:46 7.83758 6.76102 19763 ft 325 kts 253°
2026-04-24 16:46 7.83045 6.73940 19767 ft 325 kts 253°
2026-04-24 16:46 7.82334 6.71774 19768 ft 325 kts 253°
2026-04-24 16:47 7.81620 6.69615 19767 ft 325 kts 253°
2026-04-24 16:47 7.80901 6.67452 19765 ft 325 kts 253°
2026-04-24 16:47 7.80187 6.65285 19765 ft 325 kts 253°
2026-04-24 16:47 7.79474 6.63122 19768 ft 325 kts 253°
2026-04-24 16:48 7.78767 6.60984 19769 ft 325 kts 253°
2026-04-24 16:48 7.78050 6.58820 19770 ft 325 kts 252°
2026-04-24 16:48 7.77333 6.56656 19770 ft 325 kts 253°
2026-04-24 16:48 7.76617 6.54490 19774 ft 325 kts 253°
2026-04-24 16:49 7.75902 6.52328 19775 ft 325 kts 253°
2026-04-24 16:49 7.75188 6.50164 19778 ft 325 kts 253°
2026-04-24 16:49 7.74470 6.47999 19776 ft 325 kts 253°
2026-04-24 16:49 7.73754 6.45835 19779 ft 325 kts 253°
2026-04-24 16:50 7.73282 6.44403 19783 ft 325 kts 253°
2026-04-24 16:50 7.72322 6.41510 19781 ft 325 kts 252°
2026-04-24 16:50 7.71608 6.39345 19785 ft 325 kts 252°
2026-04-24 16:50 7.70888 6.37184 19788 ft 325 kts 253°
2026-04-24 16:51 7.70182 6.35048 19786 ft 325 kts 253°
2026-04-24 16:51 7.69465 6.32889 19789 ft 325 kts 253°
2026-04-24 16:51 7.68746 6.30726 19791 ft 325 kts 253°
2026-04-24 16:51 7.68031 6.28565 19794 ft 325 kts 253°
2026-04-24 16:52 7.67315 6.26403 19794 ft 325 kts 253°
2026-04-24 16:52 7.66595 6.24238 19797 ft 325 kts 253°
2026-04-24 16:52 7.65879 6.22078 19796 ft 325 kts 253°
2026-04-24 16:52 7.65163 6.19915 19799 ft 325 kts 253°
2026-04-24 16:53 7.64446 6.17753 19803 ft 325 kts 253°
2026-04-24 16:53 7.63729 6.15590 19805 ft 325 kts 253°
2026-04-24 16:53 7.63008 6.13424 19804 ft 326 kts 253°
2026-04-24 16:53 7.62291 6.11259 19810 ft 326 kts 253°
2026-04-24 16:54 7.61571 6.09095 19809 ft 326 kts 253°
2026-04-24 16:54 7.60852 6.06931 19811 ft 326 kts 253°
2026-04-24 16:54 7.60148 6.04793 19814 ft 326 kts 253°
2026-04-24 16:54 7.59431 6.02631 19815 ft 326 kts 253°
2026-04-24 16:55 7.58705 6.00462 19818 ft 326 kts 253°
2026-04-24 16:55 7.57984 5.98299 19819 ft 326 kts 253°
2026-04-24 16:55 7.57264 5.96129 19816 ft 326 kts 253°
2026-04-24 16:55 7.56541 5.93957 19818 ft 326 kts 253°
2026-04-24 16:56 7.55824 5.91789 19819 ft 326 kts 253°
2026-04-24 16:56 7.55101 5.89615 19820 ft 326 kts 253°
2026-04-24 16:56 7.54376 5.87447 19822 ft 326 kts 253°
2026-04-24 16:56 7.53658 5.85275 19822 ft 326 kts 253°
2026-04-24 16:57 7.52935 5.83102 19824 ft 327 kts 253°
2026-04-24 16:57 7.52207 5.80935 19823 ft 327 kts 253°
2026-04-24 16:57 7.51488 5.78763 19822 ft 327 kts 253°
2026-04-24 16:57 7.50766 5.76585 19829 ft 327 kts 253°
2026-04-24 16:58 7.50037 5.74411 19823 ft 327 kts 253°
2026-04-24 16:58 7.49320 5.72268 19825 ft 327 kts 253°
2026-04-24 16:58 7.48596 5.70090 19832 ft 328 kts 253°
2026-04-24 16:58 7.47872 5.67917 19828 ft 328 kts 253°
2026-04-24 16:59 7.47147 5.65738 19828 ft 328 kts 253°
2026-04-24 16:59 7.46424 5.63562 19831 ft 328 kts 253°
2026-04-24 16:59 7.44966 5.59200 19831 ft 328 kts 253°
2026-04-24 17:00 7.44244 5.57025 19834 ft 328 kts 253°
2026-04-24 17:00 7.42788 5.52657 19835 ft 328 kts 253°
2026-04-24 17:00 7.42057 5.50475 19832 ft 328 kts 253°
2026-04-24 17:01 7.40601 5.46112 19838 ft 328 kts 253°
2026-04-24 17:01 7.39874 5.43927 19841 ft 328 kts 253°
2026-04-24 17:02 7.38667 5.40301 19843 ft 329 kts 253°
2026-04-24 17:02 7.37686 5.37379 19844 ft 329 kts 253°
2026-04-24 17:02 7.36967 5.35222 19842 ft 329 kts 253°
2026-04-24 17:02 7.36226 5.33011 19842 ft 329 kts 253°
2026-04-24 17:03 7.34773 5.28664 19844 ft 329 kts 253°
2026-04-24 17:03 7.34048 5.26483 19846 ft 329 kts 253°
2026-04-24 17:03 7.33317 5.24294 19847 ft 329 kts 253°
2026-04-24 17:04 7.32583 5.22109 19845 ft 329 kts 253°
2026-04-24 17:04 7.31124 5.17733 19845 ft 330 kts 253°
2026-04-24 17:04 7.30633 5.16284 19848 ft 329 kts 253°
2026-04-24 17:05 7.29902 5.14099 19848 ft 329 kts 253°
2026-04-24 17:05 7.29173 5.11913 19846 ft 329 kts 253°
2026-04-24 17:05 7.27701 5.07534 19849 ft 330 kts 253°
2026-04-24 17:06 7.26974 5.05348 19850 ft 330 kts 253°
2026-04-24 17:06 7.25504 5.00968 19847 ft 330 kts 252°
2026-04-24 17:06 7.24779 4.98804 19848 ft 330 kts 253°
2026-04-24 17:07 7.24048 4.96617 19850 ft 330 kts 253°
2026-04-24 17:07 7.23313 4.94426 19847 ft 330 kts 253°
2026-04-24 17:07 7.21846 4.90039 19848 ft 330 kts 253°
2026-04-24 17:08 7.20369 4.85652 19848 ft 331 kts 253°
2026-04-24 17:08 7.19634 4.83457 19848 ft 331 kts 253°
2026-04-24 17:08 7.18902 4.81261 19850 ft 331 kts 253°
2026-04-24 17:09 7.17437 4.76894 19847 ft 331 kts 253°
2026-04-24 17:09 7.15959 4.72499 19846 ft 331 kts 253°
2026-04-24 17:10 7.15223 4.70302 19847 ft 331 kts 253°
2026-04-24 17:10 7.13011 4.63711 19849 ft 331 kts 253°
2026-04-24 17:11 7.10795 4.57122 19848 ft 331 kts 253°
2026-04-24 17:12 7.07100 4.46152 19848 ft 332 kts 252°
2026-04-24 18:54 6.35404 2.38466 21 ft 0 kts 142°